timestamp,surface_pressure_avg,surface_temp_avg,battery_voltage,lat,long
2018-03-24 00:00:00+00:00,255.1131,1.35,12.73,47.84626,-54.09684
2018-03-24 00:10:00+00:00,253.9114,1.32,12.65,47.84626,-54.09684
2018-03-24 00:20:00+00:00,255.1631,1.31,12.73,47.84626,-54.09684
2018-03-24 00:30:00+00:00,260.1147,1.31,12.73,47.84626,-54.09684
2018-03-24 00:40:00+00:00,265.3997,1.32,12.73,47.84626,-54.09684
2018-03-24 00:50:00+00:00,264.7181,1.32,12.73,47.84626,-54.09684
2018-03-24 01:00:00+00:00,265.2231,1.3,12.73,47.84626,-54.09684
2018-03-24 01:10:00+00:00,272.2464,1.3,12.65,47.84626,-54.09684
2018-03-24 01:20:00+00:00,281.2448,1.3,12.73,47.84626,-54.09684
2018-03-24 01:30:00+00:00,284.9163,1.33,12.73,47.84626,-54.09684
2018-03-24 01:40:00+00:00,288.4863,1.35,12.73,47.84626,-54.09684
2018-03-24 01:50:00+00:00,295.4431,1.37,12.73,47.84626,-54.09684
2018-03-24 02:00:00+00:00,304.1497,1.36,12.73,47.84626,-54.09684
2018-03-24 02:10:00+00:00,310.113,1.3,12.65,47.84626,-54.09684
2018-03-24 02:20:00+00:00,318.4996,1.3,12.73,47.84626,-54.09684
2018-03-24 02:30:00+00:00,326.5814,1.3,12.73,47.84626,-54.09684
2018-03-24 02:40:00+00:00,332.5114,1.3,12.73,47.84626,-54.09684
2018-03-24 02:50:00+00:00,331.488,1.31,12.73,47.84626,-54.09684
2018-03-24 03:00:00+00:00,335.2546,1.34,12.73,47.84626,-54.09684
2018-03-24 03:10:00+00:00,341.2579,1.36,12.65,47.84626,-54.09684
2018-03-24 03:20:00+00:00,348.1296,1.37,12.73,47.84626,-54.09684
2018-03-24 03:30:00+00:00,351.0896,1.35,12.73,47.84626,-54.09684
2018-03-24 03:40:00+00:00,351.2246,1.35,12.73,47.84626,-54.09684
2018-03-24 03:50:00+00:00,355.3746,1.35,12.73,47.84626,-54.09684
2018-03-24 04:00:00+00:00,356.523,1.36,12.73,47.84626,-54.09684
2018-03-24 04:10:00+00:00,352.693,1.34,12.65,47.84626,-54.09684
2018-03-24 04:20:00+00:00,349.9463,1.34,12.73,47.84626,-54.09684
2018-03-24 04:30:00+00:00,352.958,1.32,12.73,47.84626,-54.09684
2018-03-24 04:40:00+00:00,355.7946,1.33,12.73,47.84626,-54.09684
2018-03-24 04:50:00+00:00,351.2079,1.34,12.73,47.84626,-54.09684
2018-03-24 05:00:00+00:00,351.0863,1.33,12.73,47.84626,-54.09684
2018-03-24 05:10:00+00:00,351.533,1.35,12.65,47.84626,-54.09684
2018-03-24 05:20:00+00:00,351.0746,1.34,12.73,47.84626,-54.09684
2018-03-24 05:30:00+00:00,342.303,1.3,12.73,47.84626,-54.09684
2018-03-24 05:40:00+00:00,349.1412,1.3,12.73,47.84626,-54.09684
2018-03-24 05:50:00+00:00,346.5013,1.35,12.73,47.84626,-54.09684
2018-03-24 06:00:00+00:00,333.8547,1.3,12.65,47.84626,-54.09684
2018-03-24 06:10:00+00:00,327.6647,1.3,12.65,47.84626,-54.09684
2018-03-24 06:20:00+00:00,328.068,1.31,12.73,47.84626,-54.09684
2018-03-24 06:30:00+00:00,318.0464,1.3,12.73,47.84626,-54.09684
2018-03-24 06:40:00+00:00,309.7396,1.3,12.73,47.84626,-54.09684
2018-03-24 06:50:00+00:00,314.1464,1.3,12.73,47.84626,-54.09684
2018-03-24 07:00:00+00:00,310.3947,1.3,12.65,47.84626,-54.09684
2018-03-24 07:10:00+00:00,291.6513,1.3,12.65,47.84626,-54.09684
2018-03-24 07:20:00+00:00,283.3464,1.29,12.73,47.84626,-54.09684
2018-03-24 07:30:00+00:00,286.8747,1.3,12.73,47.84626,-54.09684
2018-03-24 07:40:00+00:00,284.7547,1.3,12.73,47.84626,-54.09684
2018-03-24 07:50:00+00:00,268.3664,1.29,12.73,47.84626,-54.09684
2018-03-24 08:00:00+00:00,256.9814,1.29,12.65,47.84626,-54.09684
2018-03-24 08:10:00+00:00,252.3548,1.29,12.65,47.84626,-54.09684
2018-03-24 08:20:00+00:00,246.8131,1.29,12.73,47.84626,-54.09684
2018-03-24 08:30:00+00:00,242.7064,1.28,12.73,47.84626,-54.09684
2018-03-24 08:40:00+00:00,243.9298,1.28,12.73,47.84626,-54.09684
2018-03-24 08:50:00+00:00,241.7398,1.21,12.73,47.84626,-54.09684
2018-03-24 09:00:00+00:00,231.7031,1.2,12.65,47.84626,-54.09684
2018-03-24 09:10:00+00:00,224.1031,1.2,12.65,47.84626,-54.09684
2018-03-24 09:20:00+00:00,223.3181,1.2,12.73,47.84626,-54.09684
2018-03-24 09:30:00+00:00,217.7481,1.24,12.73,47.84626,-54.09684
2018-03-24 09:40:00+00:00,212.5915,1.22,12.73,47.84626,-54.09684
2018-03-24 09:50:00+00:00,214.2415,1.2,12.73,47.84626,-54.09684
2018-03-24 10:00:00+00:00,217.1414,1.2,12.73,47.84626,-54.09684
2018-03-24 10:10:00+00:00,214.9481,1.2,12.73,47.84626,-54.09684
2018-03-24 10:20:00+00:00,213.7331,1.23,12.81,47.84626,-54.09684
2018-03-24 10:30:00+00:00,217.4964,1.25,12.81,47.84626,-54.09684
2018-03-24 10:40:00+00:00,219.4064,1.26,12.73,47.84626,-54.09684
2018-03-24 10:50:00+00:00,221.7697,1.26,12.73,47.84626,-54.09684
2018-03-24 11:00:00+00:00,221.1747,1.28,12.73,47.84626,-54.09684
2018-03-24 11:10:00+00:00,221.5048,1.29,12.73,47.84626,-54.09684
2018-03-24 11:20:00+00:00,226.3231,1.3,12.81,47.84626,-54.09684
2018-03-24 11:30:00+00:00,231.4848,1.3,12.73,47.84626,-54.09684
2018-03-24 11:40:00+00:00,230.3997,1.3,12.73,47.84626,-54.09684
2018-03-24 11:50:00+00:00,233.8298,1.3,12.73,47.84626,-54.09684
2018-03-24 12:00:00+00:00,239.3981,1.3,12.73,47.84626,-54.09684
2018-03-24 12:10:00+00:00,239.6447,1.3,12.65,47.84626,-54.09684
2018-03-24 12:20:00+00:00,233.1831,1.3,12.89,47.84626,-54.09684
2018-03-24 12:30:00+00:00,232.6998,1.3,12.81,47.84626,-54.09684
2018-03-24 12:40:00+00:00,240.2214,1.3,12.81,47.84626,-54.09684
2018-03-24 12:50:00+00:00,243.6964,1.3,12.81,47.84626,-54.09684
2018-03-24 13:00:00+00:00,237.4298,1.36,12.73,47.84626,-54.09684
2018-03-24 13:10:00+00:00,243.1948,1.35,12.73,47.84626,-54.09684
2018-03-24 13:20:00+00:00,259.7498,1.33,12.81,47.84626,-54.09684
2018-03-24 13:30:00+00:00,268.8964,1.35,12.81,47.84626,-54.09684
2018-03-24 13:40:00+00:00,267.0098,1.39,12.81,47.84626,-54.09684
2018-03-24 13:50:00+00:00,274.4114,1.4,12.81,47.84626,-54.09684
2018-03-24 14:00:00+00:00,289.4197,1.4,12.73,47.84626,-54.09684
2018-03-24 14:10:00+00:00,292.5264,1.4,12.65,47.84626,-54.09684
2018-03-24 14:20:00+00:00,283.7214,1.4,12.73,47.84626,-54.09684
2018-03-24 14:30:00+00:00,289.7614,1.4,12.73,47.84626,-54.09684
2018-03-24 14:40:00+00:00,302.2614,1.4,12.73,47.84626,-54.09684
2018-03-24 14:50:00+00:00,304.7897,1.4,12.73,47.84626,-54.09684
2018-03-24 15:00:00+00:00,301.9346,1.4,12.65,47.84626,-54.09684
2018-03-24 15:10:00+00:00,309.7914,1.4,12.73,47.84626,-54.09684
2018-03-24 15:20:00+00:00,322.4063,1.4,12.89,47.84626,-54.09684
2018-03-24 15:30:00+00:00,322.7729,1.4,13.05,47.84626,-54.09684
2018-03-24 15:40:00+00:00,319.7396,1.4,12.89,47.84626,-54.09684
2018-03-24 15:50:00+00:00,331.2598,1.4,12.89,47.84626,-54.09684
2018-03-24 16:00:00+00:00,335.3646,1.4,12.81,47.84626,-54.09684
2018-03-24 16:10:00+00:00,324.913,1.42,12.73,47.84626,-54.09684
2018-03-24 16:20:00+00:00,322.143,1.4,12.73,47.84626,-54.09684
2018-03-24 16:30:00+00:00,331.8596,1.4,12.73,47.84626,-54.09684
2018-03-24 16:40:00+00:00,332.2396,1.45,12.73,47.84626,-54.09684
2018-03-24 16:50:00+00:00,329.6113,1.5,12.73,47.84626,-54.09684
2018-03-24 17:00:00+00:00,336.793,1.4,12.73,47.84626,-54.09684
2018-03-24 17:10:00+00:00,342.6797,1.42,12.73,47.84626,-54.09684
2018-03-24 17:20:00+00:00,332.9412,1.48,12.97,47.84626,-54.09684
2018-03-24 17:30:00+00:00,333.3763,1.5,12.97,47.84626,-54.09684
2018-03-24 17:40:00+00:00,332.9996,1.49,12.89,47.84626,-54.09684
2018-03-24 17:50:00+00:00,335.4896,1.5,12.81,47.84626,-54.09684
2018-03-24 18:00:00+00:00,326.9597,1.45,12.73,47.84626,-54.09684
2018-03-24 18:10:00+00:00,323.0046,1.44,12.73,47.84626,-54.09684
2018-03-24 18:20:00+00:00,325.073,1.46,12.89,47.84626,-54.09684
2018-03-24 18:30:00+00:00,318.163,1.49,12.81,47.84626,-54.09684
2018-03-24 18:40:00+00:00,309.3964,1.5,12.81,47.84626,-54.09684
2018-03-24 18:50:00+00:00,309.5696,1.5,12.81,47.84626,-54.09684
2018-03-24 19:00:00+00:00,306.5797,1.51,12.73,47.84626,-54.09684
2018-03-24 19:10:00+00:00,294.043,1.63,12.65,47.84626,-54.09684
2018-03-24 19:20:00+00:00,290.2264,1.5,12.73,47.84626,-54.09684
2018-03-24 19:30:00+00:00,290.5514,1.51,12.73,47.84626,-54.09684
2018-03-24 19:40:00+00:00,280.5781,1.75,12.73,47.84626,-54.09684
2018-03-24 19:50:00+00:00,270.7481,1.7,12.81,47.84626,-54.09684
2018-03-24 20:00:00+00:00,266.2231,1.5,12.73,47.84626,-54.09684
2018-03-24 20:10:00+00:00,258.548,1.58,12.73,47.84626,-54.09684
2018-03-24 20:20:00+00:00,251.9664,1.5,12.81,47.84626,-54.09684
2018-03-24 20:30:00+00:00,241.0847,1.55,12.73,47.84626,-54.09684
2018-03-24 20:40:00+00:00,232.3131,1.6,12.73,47.84626,-54.09684
2018-03-24 20:50:00+00:00,232.1465,1.6,12.81,47.84626,-54.09684
2018-03-24 21:00:00+00:00,233.3798,1.65,12.73,47.84626,-54.09684
2018-03-24 21:10:00+00:00,225.6364,1.7,12.65,47.84626,-54.09684
2018-03-24 21:20:00+00:00,221.9748,1.6,12.73,47.84626,-54.09684
2018-03-24 21:30:00+00:00,227.0331,1.6,12.73,47.84626,-54.09684
2018-03-24 21:40:00+00:00,227.8231,1.69,12.73,47.84626,-54.09684
2018-03-24 21:50:00+00:00,222.2581,1.6,12.73,47.84626,-54.09684
2018-03-24 22:00:00+00:00,219.7714,1.6,12.65,47.84626,-54.09684
2018-03-24 22:10:00+00:00,221.8314,1.6,12.65,47.84626,-54.09684
2018-03-24 22:20:00+00:00,223.0698,1.6,12.73,47.84626,-54.09684
2018-03-24 22:30:00+00:00,219.6447,1.67,12.73,47.84626,-54.09684
2018-03-24 22:40:00+00:00,219.3031,1.61,12.73,47.84626,-54.09684
2018-03-24 22:50:00+00:00,226.3731,1.6,12.73,47.84626,-54.09684
2018-03-24 23:00:00+00:00,232.5397,1.62,12.65,47.84626,-54.09684
2018-03-24 23:10:00+00:00,231.3881,1.7,12.65,47.84626,-54.09684
2018-03-24 23:20:00+00:00,230.7931,1.6,12.73,47.84626,-54.09684
2018-03-24 23:30:00+00:00,236.4197,1.6,12.73,47.84626,-54.09684
2018-03-24 23:40:00+00:00,238.1248,1.6,12.73,47.84626,-54.09684
2018-03-24 23:50:00+00:00,233.6348,1.6,12.73,47.84626,-54.09684
